NOAA 16 DEB, 42402

Orbit data source: Space-Track

NOAA 16 DEB, 42402 is space debris in SSO originally from a launch on Thu, 21 Sep 2000 UTC launched from the Air Force Western Test Range (AFWTR). Debris objects in space refer to the collection of defunct objects orbiting the Earth. Examples of debris include non-operational satellites, rocket bodies, and fragments generated from explosions, collisions, or faulty payload assembly.

Loading next visibility...
Identifier
42402, 2000-055SW
Orbit
SSO
Country
Flag of USUS
Related business
Manufacturer
Unknown
Mission
Spacecraft
Bus & Motor
Unknown
Mass
Unknown
Launch date (UTC)
2000-09-21 (26 years ago)
Launch vehicle
Unknown
Launch site
Air Force Western Test Range (AFWTR)
Object type
Payload
Rocket body
Debris
Shape & HBR
Unknown shape, 0.1 m
Radar Cross Section
Medium (>0.1 m² and <1 m²)

Expand to show TLE details & history
Last TLE update: 18 hours ago

TLE from 18 hours ago
0 NOAA 16 DEB
1 42402U 00055SW  26208.47453594  .00004144  00000-0  11870-2 0  9993
2 42402  99.0253  73.5941 0030638  11.8167 348.3735 14.45300954542183
Epoch: 2026-07-27T11:23Z
TLE epoch observation values (Epoch: 2026-07-27T11:23:19.905Z)
Latitude
0.00002°
Longitude
-42.39643°
Altitude
722.61 km
Speed
7.505 km/s
True Right ascension
04h 54m 22s
True Declination
0° 00' 00"
Sunlit
Object was in daylight at epoch
Visualization orbit readout
Latitude
Unknown
Longitude
Unknown
Altitude
Unknown
Speed
Unknown
Apparent Right ascension
Unknown
Apparent Declination
Unknown
Sunlit
N/A
Visualization observer readout
Local Sidereal Time
18:29:17
Azimuth
Unknown
Elevation
Unknown
Doppler factor
Unknown
Orbital elements
Apogee altitude
759.981 km
Perigee altitude
716.375 km
Semi-major axis
7,116.315 km
Eccentricity
0.00306
Inclination
99.0253°
RAAN
73.5941°
Arg. of periapsis
11.8167°
True anomaly
348.30248°
Mean anomaly
348.3735°
Eccentric anomaly
348.33802°
Mean motion
3.61543 °/min
Orbital period
99.57 mins
BSTAR
0.001187
Loading maneuver chart data...
Computing Atmospheric mass density...
Loading historical data...
Loading historical data...
Loading historical data...
Loading historical data...
Loading historical data...
Loading historical data...
Loading historical data...

Documentation

Showing up to 5 results
|